Flag for United Kingdom Weather past 2 weeks in Glasgow, Scotland, United Kingdom

Now
36 °F

Chilly.


Feels Like: 36 °F
Forecast: 38 / 64 °F
Wind: 2 mph from North

Location: Glasgow Airport

Current Time: Apr 21, 2015 at 6:57:22 AM

Latest Report: Apr 21, 2015 at 6:20 AM


Visibility: N/A

Pressure: 30.60 "Hg

Humidity: 93%

Dew point: 34 °F

Location of GlasgowLocation

Historic Weather in Glasgow — Graph

°F

Glasgow temperature yesterday

Maximum temperature yesterday: 57 °F (at 4:20 PM)
Minimum temperature yesterday: 36 °F (at 12:20 AM)
Average temperature yesterday: 48 °F

Past Weeks' High & Low Weather Summary

 TemperatureHumidityPressure
High64 °F (Apr 10, 4:50 PM)100% (Apr 6, 5:20 AM)30.60 "Hg (Apr 6, 5:20 AM)
Low28 °F (Apr 8, 5:20 AM)36% (Apr 16, 5:20 PM)29.56 "Hg (Apr 11, 1:50 AM)
Average46 °F76%30.23 "Hg
* Reported Apr 6 5:20 AM — Apr 21 5:50 AM, Glasgow, Weather by CustomWeather, © 2015

Note: Actual official high and low records may vary slightly from our data, if they occured in-between our weather recording intervals... More about our weather records

Advertising

Glasgow weather history for previous 24 hours

 ConditionsComfort  
Time TempWeatherWind HumidityBarometerVisibility
5:50 AM
Tue, Apr 21
30 °FChilly.2 mph93%30.60 "HgN/A
5:20 AM34 °FChilly.3 mph93%30.57 "HgN/A
4:20 AM34 °FChilly.6 mph93%30.57 "HgN/A
3:50 AM37 °FChilly.2 mph87%30.57 "HgN/A
3:20 AM37 °FChilly.2 mph93%30.57 "HgN/A
2:50 AM36 °FChilly.1 mph100%30.57 "HgN/A
2:20 AM37 °FChilly.6 mph93%30.57 "HgN/A
1:50 AM36 °FChilly.1 mph93%30.57 "HgN/A
1:20 AM36 °FChilly.2 mph93%30.57 "HgN/A
12:50 AM37 °FChilly.3 mph87%30.57 "HgN/A
12:20 AM37 °FChilly.2 mph87%30.57 "HgN/A
11:50 PM
Mon, Apr 20
39 °FChilly.3 mph87%30.54 "HgN/A
11:20 PM41 °FQuite cool.2 mph87%30.54 "HgN/A
10:50 PM41 °FQuite cool.3 mph87%30.54 "HgN/A
10:20 PM41 °FQuite cool.2 mph87%30.54 "HgN/A
9:50 PM43 °FQuite cool.5 mph81%30.54 "HgN/A
9:20 PM45 °FQuite cool.7 mph76%30.54 "HgN/A
8:50 PM45 °FQuite cool.8 mph71%30.54 "HgN/A
8:20 PM50 °FCool.5 mph54%30.51 "HgN/A
7:50 PM52 °FCool.5 mph54%30.51 "HgN/A
7:20 PM54 °FCool.7 mph51%30.51 "HgN/A
6:50 PM55 °FPassing clouds.9 mph44%30.51 "HgN/A
6:20 PM55 °FRefreshingly cool.9 mph41%30.48 "HgN/A
5:50 PM55 °FPassing clouds.9 mph44%30.48 "HgN/A
5:20 PM57 °FPassing clouds.10 mph41%30.48 "HgN/A
4:50 PM57 °FPartly sunny.13 mph48%30.48 "HgN/A
4:20 PM57 °FOvercast.13 mph48%30.48 "HgN/A
3:50 PM55 °FPartly sunny.6 mph51%30.48 "HgN/A
3:20 PM55 °FPartly sunny.6 mph51%30.48 "HgN/A
2:50 PM55 °FOvercast.1 mph51%30.48 "HgN/A
2:20 PM54 °FPartly sunny.6 mph54%30.48 "HgN/A
1:50 PM55 °FPartly sunny.7 mph51%30.48 "HgN/A
1:20 PM54 °FOvercast.7 mph54%30.48 "HgN/A
12:50 PM54 °FOvercast.6 mph51%30.48 "HgN/A
12:20 PM54 °FPartly sunny.2 mph54%30.48 "HgN/A
11:50 AM54 °FPartly sunny.5 mph54%30.48 "HgN/A
11:20 AM54 °FPartly sunny.7 mph58%30.48 "HgN/A
10:50 AM52 °FMore clouds than sun.6 mph62%30.48 "HgN/A
10:20 AM50 °FBroken clouds.6 mph67%30.45 "HgN/A
9:50 AM50 °FPartly sunny.6 mph71%30.45 "HgN/A
9:20 AM48 °FMostly cloudy.9 mph76%30.45 "HgN/A
8:50 AM46 °FOvercast.8 mph82%30.45 "HgN/A
8:20 AM46 °FPartly sunny.9 mph82%30.45 "HgN/A
7:50 AM45 °FBroken clouds.7 mph87%30.45 "HgN/A
7:20 AM45 °FMostly cloudy.6 mph87%30.45 "HgN/A
6:50 AM45 °FPassing clouds.6 mph81%30.42 "HgN/A
6:20 AM43 °FMostly cloudy.8 mph87%30.42 "HgN/A
Weather by CustomWeather, © 2015

See weather overviewHow to use our weather pages